Location: Campillo
(40.8621°N, 4.2488°W)
Time: 06:27:17
(UTC+00:00)

X-37B - Pass Details

Date: 08 August 2021
Orbit: 381 x 393 km, 45.0° (Epoch: 29 August)

Event Time Altitude Azimuth Distance (km) Brightness Sun altitude
Exits shadow 03:09:43 37° 343° (NNW) 613 1.7 -21.1°
Maximum altitude 03:09:56 37° 354° (N) 605 1.8 -21.1°
Drops below altitude 10° 03:12:54 10° 65° (ENE) 1,397 4.4 -20.7°
Sets 03:15:03 0° 74° (ENE) 2,251 5.5 -20.4°
